Total_Precipitation_Accumulation
0.03 0.05 0.05 0.07 0.07 0.08 0.11 0.09 0.09 0.10 0.11 0.14 0.19 0.27 0.36 0.47 0.44 0.51 0.62 0.66 0.60 0.60 0.68 1.01 1.50 2.10 2.55 2.73 2.73 2.79 2.77 2.80 2.86 2.87 2.95 3.20 3.38 3.40 3.37 3.48 3.54 3.40 3.31 3.32
0.04 0.05 0.05 0.07 0.09 0.09 0.14 0.10 0.08 0.12 0.13 0.16 0.27 0.36 0.45 0.53 0.52 0.58 0.69 0.68 0.63 0.61 0.70 1.06 1.46 1.83 2.18 2.47 2.64 2.75 2.68 2.86 3.12 3.45 3.86 4.20 4.43 4.39 4.24 4.18 4.10 3.95 3.85 3.75
0.04 0.03 0.03 0.04 0.07 0.09 0.13 0.09 0.09 0.13 0.17 0.19 0.30 0.55 0.60 0.61 0.70 0.74 0.73 0.78 0.79 0.69 0.76 1.02 1.22 1.50 1.82 2.14 2.42 2.61 2.78 3.17 3.63 4.14 4.82 5.27 5.19 4.89 4.76 4.51 4.40 4.16 3.88 3.81
0.01 0.01 0.02 0.04 0.05 0.07 0.08 0.06 0.08 0.10 0.13 0.19 0.23 0.55 0.79 0.80 0.93 0.98 0.89 0.83 0.81 0.76 0.73 0.86 1.07 1.28 1.52 1.93 2.30 2.62 2.98 3.47 4.07 4.56 5.04 5.34 5.38 5.18 4.97 4.55 4.18 3.80 3.46 3.27
0.01 0.03 0.07 0.10 0.05 0.06 0.05 0.05 0.08 0.08 0.09 0.15 0.23 0.41 0.81 0.98 1.04 1.07 0.98 0.89 0.75 0.69 0.67 0.71 0.84 1.03 1.31 1.73 2.17 2.55 2.90 3.47 4.02 4.54 4.90 5.11 5.24 5.14 4.83 4.21 3.64 3.27 2.97 2.76
0.01 0.02 0.06 0.06 0.03 0.05 0.05 0.05 0.08 0.12 0.14 0.23 0.22 0.38 0.90 1.20 1.18 1.09 1.08 1.03 0.85 0.70 0.68 0.70 0.77 0.88 1.16 1.50 1.87 2.24 2.59 3.26 3.90 4.43 4.80 5.04 5.09 4.83 4.29 3.70 3.20 2.88 2.63 2.40
0.03 0.04 0.05 0.05 0.04 0.05 0.06 0.08 0.18 0.26 0.30 0.34 0.25 0.42 0.87 0.99 1.01 1.10 1.06 0.97 0.85 0.73 0.68 0.67 0.77 0.81 1.05 1.37 1.66 2.02 2.40 2.85 3.33 3.73 3.95 4.10 4.13 3.94 3.65 3.29 2.88 2.54 2.33 2.12
0.10 0.10 0.07 0.04 0.03 0.03 0.05 0.09 0.24 0.34 0.36 0.38 0.45 0.78 1.16 1.06 1.01 1.03 1.02 0.88 0.79 0.74 0.73 0.72 0.77 0.83 0.92 1.13 1.43 1.79 2.11 2.41 2.64 2.80 2.97 2.97 2.91 2.84 2.72 2.41 2.08 1.82 1.59 1.46
0.14 0.14 0.07 0.03 0.02 0.02 0.03 0.07 0.09 0.15 0.18 0.38 0.70 0.96 1.31 1.26 1.24 1.09 0.99 0.92 0.83 0.78 0.77 0.78 0.82 0.84 0.91 1.03 1.24 1.45 1.59 1.78 1.84 1.79 1.80 1.86 1.88 1.84 1.72 1.57 1.35 1.12 0.92 0.82
0.11 0.11 0.09 0.05 0.04 0.04 0.04 0.05 0.08 0.19 0.30 0.48 0.73 1.12 1.58 1.63 1.49 1.20 0.97 0.84 0.71 0.71 0.77 0.82 0.85 0.89 0.93 0.96 1.14 1.25 1.24 1.23 1.25 1.28 1.26 1.23 1.24 1.24 1.21 1.15 1.05 0.92 0.79 0.67
0.10 0.12 0.11 0.08 0.09 0.11 0.08 0.09 0.10 0.20 0.28 0.50 0.83 1.37 1.51 1.66 1.54 1.38 1.23 0.93 0.80 0.77 0.79 0.85 0.83 0.80 0.79 0.79 0.84 0.89 0.93 0.97 0.98 0.97 0.97 0.96 0.90 0.84 0.83 0.88 0.86 0.78 0.69 0.60
0.14 0.13 0.21 0.16 0.13 0.11 0.09 0.10 0.14 0.28 0.36 0.42 0.73 1.47 1.40 1.71 1.69 1.48 1.32 1.03 0.94 0.89 0.86 0.82 0.77 0.71 0.70 0.74 0.77 0.76 0.77 0.78 0.80 0.80 0.78 0.79 0.71 0.66 0.65 0.65 0.65 0.61 0.57 0.56
0.11 0.17 0.34 0.44 0.39 0.23 0.16 0.12 0.14 0.18 0.29 0.39 0.72 1.50 1.54 1.61 1.64 1.37 1.17 1.10 1.12 1.11 1.05 0.92 0.82 0.73 0.69 0.71 0.72 0.67 0.64 0.61 0.56 0.54 0.55 0.61 0.61 0.58 0.60 0.56 0.55 0.58 0.55 0.51
0.09 0.25 0.49 0.84 0.75 0.40 0.28 0.19 0.16 0.20 0.36 0.47 0.70 1.17 1.39 1.44 1.37 1.29 1.20 1.17 1.24 1.23 1.08 0.93 0.88 0.78 0.73 0.68 0.64 0.60 0.56 0.52 0.47 0.42 0.41 0.47 0.51 0.52 0.53 0.54 0.51 0.48 0.46 0.45
0.11 0.27 0.33 0.32 0.27 0.27 0.29 0.25 0.23 0.26 0.34 0.55 0.83 1.07 1.26 1.45 1.53 1.49 1.33 1.23 1.23 1.20 1.13 1.05 0.95 0.85 0.76 0.71 0.64 0.58 0.53 0.45 0.42 0.43 0.45 0.47 0.49 0.48 0.50 0.51 0.49 0.42 0.38 0.35
0.12 0.21 0.28 0.32 0.28 0.28 0.33 0.34 0.32 0.33 0.44 0.62 0.85 1.19 1.45 1.62 1.62 1.52 1.40 1.31 1.31 1.22 1.15 1.07 0.97 0.88 0.80 0.78 0.74 0.68 0.62 0.54 0.50 0.53 0.54 0.50 0.49 0.50 0.52 0.50 0.45 0.40 0.36 0.33
0.18 0.27 0.44 0.46 0.33 0.43 0.72 0.61 0.55 0.55 0.57 0.74 0.97 1.20 1.39 1.53 1.59 1.59 1.49 1.45 1.44 1.34 1.29 1.22 1.11 0.98 0.91 0.85 0.78 0.75 0.69 0.62 0.56 0.56 0.52 0.49 0.45 0.44 0.43 0.40 0.40 0.37 0.37 0.34
0.22 0.34 0.49 0.51 0.61 1.00 0.97 0.57 0.56 0.65 0.58 0.59 0.76 0.88 1.07 1.24 1.31 1.38 1.45 1.51 1.56 1.49 1.41 1.30 1.20 1.11 1.04 0.94 0.85 0.78 0.69 0.60 0.54 0.51 0.47 0.41 0.38 0.40 0.38 0.38 0.39 0.36 0.37 0.39
0.17 0.35 0.60 0.65 0.85 1.03 0.91 0.56 0.48 0.71 0.86 0.65 0.63 0.70 0.82 0.85 1.02 1.31 1.32 1.31 1.43 1.44 1.38 1.29 1.19 1.12 1.05 0.95 0.83 0.71 0.62 0.52 0.46 0.45 0.41 0.36 0.32 0.31 0.32 0.34 0.37 0.38 0.40 0.44
0.15 0.30 0.60 0.78 1.03 1.21 0.95 0.42 0.36 0.65 1.15 0.81 0.76 0.75 0.89 0.94 1.09 1.21 1.09 1.08 1.16 1.22 1.20 1.16 1.11 1.03 0.95 0.83 0.68 0.61 0.58 0.51 0.42 0.37 0.33 0.30 0.30 0.31 0.33 0.36 0.38 0.34 0.38 0.44
0.43 0.51 0.68 0.86 1.09 1.11 0.56 0.29 0.41 1.00 1.17 0.82 0.83 0.88 0.90 0.96 1.00 0.89 0.85 0.97 1.08 1.12 1.11 1.04 0.97 0.90 0.80 0.68 0.57 0.53 0.50 0.44 0.30 0.23 0.23 0.26 0.28 0.29 0.28 0.34 0.38 0.36 0.36 0.40
0.69 0.76 0.84 0.92 1.12 1.19 0.48 0.34 0.64 0.83 0.61 0.65 0.73 0.74 0.76 0.70 0.68 0.74 0.80 0.94 1.04 1.07 1.05 0.96 0.86 0.74 0.61 0.49 0.47 0.46 0.38 0.28 0.19 0.19 0.22 0.25 0.25 0.21 0.20 0.31 0.35 0.35 0.40 0.38
0.75 0.85 0.90 1.00 1.11 0.82 0.44 0.36 0.36 0.42 0.49 0.52 0.58 0.59 0.62 0.63 0.63 0.67 0.78 0.89 0.97 0.93 0.84 0.74 0.62 0.54 0.45 0.39 0.40 0.39 0.28 0.19 0.17 0.22 0.27 0.25 0.22 0.22 0.21 0.26 0.29 0.30 0.36 0.36
0.90 0.79 0.79 0.88 0.89 0.65 0.46 0.33 0.30 0.31 0.35 0.38 0.46 0.55 0.61 0.64 0.65 0.68 0.70 0.73 0.74 0.74 0.65 0.54 0.47 0.45 0.41 0.33 0.30 0.27 0.19 0.16 0.21 0.29 0.28 0.26 0.27 0.27 0.22 0.22 0.20 0.21 0.24 0.26
0.73 0.82 0.97 1.03 0.97 0.78 0.60 0.41 0.36 0.35 0.38 0.42 0.50 0.54 0.54 0.54 0.60 0.62 0.61 0.57 0.52 0.49 0.47 0.41 0.39 0.38 0.33 0.26 0.21 0.17 0.15 0.17 0.25 0.27 0.22 0.21 0.22 0.22 0.23 0.18 0.13 0.11 0.11 0.10
0.44 0.65 0.97 1.10 0.89 0.81 0.76 0.62 0.53 0.56 0.61 0.55 0.48 0.47 0.49 0.45 0.44 0.41 0.37 0.34 0.31 0.29 0.29 0.28 0.28 0.26 0.23 0.19 0.17 0.14 0.12 0.13 0.21 0.23 0.20 0.17 0.15 0.15 0.13 0.15 0.13 0.07 0.06 0.06